[[{"header":{"parameterUnit":"m.s-1","parameterCategory":2,"la1":30.2991,"la2":30.254,"lo1":-89.0895,"lo2":-89.0444,"dy":0.0017,"dx":0.0017,"nx":28,"ny":28,"refTime":"2023-04-16T21:00:00:Z","depth":"0","parameterNumber":2,"parameterNumberName":"U-component_of_CURRENTS"},"data":[0,0,0,0,0,0,0,0,0,0,0,0,0,0,0,0,0,0,0,0,0,0,0,0,0,0,0,0,0,0,0,0,0,0,0,0,0,0,0,0,0,0,0,0,0,0,0,0,0,0,0,0,0,0,0,0,0,0,0.1121,0.1122,0,0.1181,0.1182,0.1183,0.1272,0.1273,0.1275,0.1276,0.1403,0.1405,0.1407,0,0,0,0,0,0,0,0,0,0,0,0,0,0.1199,0.1196,0.1121,0.1122,0.1122,0.1181,0.1182,0.1184,0.1272,0.1273,0.1275,0.1276,0.1402,0.1404,0.1407,0,0,0,0,0,0,0,0,0,0,0,0,0,0.1206,0.1196,0.1121,0.1171,0.1176,0.1181,0.1183,0.1184,0.1272,0.1274,0.1275,0.1277,0.1401,0.1404,0.1407,0.1391,0,0,0.1418,0.1419,0,0,0,0,0,0,0,0,0.1205,0.1203,0.1163,0.1167,0.1173,0.1218,0.1256,0.1255,0.1271,0.1239,0.1276,0.1278,0.1343,0.1351,0.1363,0.1397,0.1402,0.1418,0.142,0.1421,0.1422,0,0,0,0,0,0,0,0.1204,0.1202,0.1149,0.1163,0.1169,0.1229,0.1232,0.1257,0.1284,0.1242,0.1248,0.1248,0.1347,0.1359,0.1367,0.1404,0.1418,0.1421,0.1423,0.1424,0.152,0.152,0,0,0,0,0,0,0.1181,0.12,0.1147,0.115,0.119,0.1226,0.1229,0.1205,0.1283,0.1295,0.1246,0.1252,0.1353,0.1363,0.1371,0.1443,0.1421,0.1425,0.1426,0.1519,0.152,0.1521,0,0,0,0,0,0,0.1182,0.1174,0.1144,0.1176,0.1176,0.1221,0.1194,0.1205,0.1206,0.1284,0.1299,0.1236,0.1355,0.1367,0.1406,0.1445,0.1426,0.1429,0.1519,0.152,0.152,0.153,0,0,0,0,0,0,0.1183,0.1174,0.1144,0.1173,0.1173,0.1127,0.1193,0.1204,0.1203,0.121,0.128,0.1295,0.1357,0.1401,0.1409,0.1449,0.1432,0.1518,0.1519,0.152,0.1529,0.1531,0.1533,0,0,0,0,0,0.1185,0.1133,0.1142,0.1136,0.1131,0.1125,0.1129,0.1173,0.12,0.1185,0.1257,0.1292,0.1414,0.1403,0.1413,0.1455,0.1518,0.1519,0.152,0.1528,0.1531,0.1533,0,0,0,0,0,0,0.1151,0.1137,0.1148,0.1093,0.11,0.1138,0.1124,0.115,0.1191,0.1207,0.1286,0.1304,0.1368,0.1387,0.1373,0.1484,0.1476,0.1479,0.1479,0.1481,0.1483,0.1575,0.1434,0,0,0,0,0,0.1125,0.1081,0.109,0.1046,0.1041,0.1076,0.1077,0.1107,0.1147,0.1166,0.1225,0.1297,0.1378,0.1407,0.1468,0.15,0.1594,0.1536,0.1538,0.154,0.162,0.1761,0.1785,0.1525,0.1525,0.1525,0,0,0.1103,0.1086,0.1064,0.1036,0.1046,0.1077,0.1082,0.1072,0.114,0.1172,0.1262,0.1299,0.1388,0.1462,0.149,0.1482,0.1654,0.1541,0.1543,0.1625,0.1765,0.1791,0.1815,0.1525,0.1525,0.1525,0,0,0.1057,0.1014,0.0983,0.0991,0.0992,0.1035,0.1024,0.1056,0.1104,0.1162,0.1242,0.1307,0.1376,0.1487,0.1547,0.1584,0.1663,0.157,0.1655,0.1787,0.1812,0.1835,0.1956,0.199,0.1565,0.1565,0.1565,0,0.1037,0.1024,0.0974,0.0973,0.1022,0.102,0.1068,0.1103,0.1159,0.1242,0.1193,0.1397,0.1423,0.1614,0.1628,0.16,0.1679,0.1637,0.1796,0.1821,0.1844,0.1964,0.2001,0.1566,0.1566,0.1566,0.1566,0,0.1003,0.1014,0.0994,0.1025,0.1046,0.1075,0.1136,0.1184,0.1232,0.1307,0.1454,0.1491,0.1638,0.1622,0.1639,0.1824,0.1826,0.1785,0.1799,0.1872,0.1991,0.203,0.1567,0.1567,0.1567,0.1566,0,0,0.097,0.0977,0.0991,0.1056,0.1103,0.1137,0.1242,0.1383,0.1499,0.1533,0.1707,0.1801,0.1821,0.1891,0.19,0.1988,0.2165,0.195,0.1957,0.209,0.2469,0.2489,0.2533,0.2144,0.2151,0.2157,0.2475,0,0.1006,0.1049,0.1054,0.1177,0.1241,0.1305,0.1415,0.1532,0.1619,0.176,0.1848,0.1973,0.1924,0.1965,0.2066,0.2156,0.2274,0.2085,0.2367,0.2378,0.2402,0.2582,0.2664,0.2959,0.2514,0.252,0.2525,0,0.1042,0.108,0.1188,0.1333,0.1364,0.1433,0.1661,0.1749,0.1934,0.1996,0.2143,0.2184,0.2374,0.2251,0.2541,0.2419,0.248,0.2517,0.2529,0.2598,0.2474,0.282,0.3047,0.2969,0.2585,0.2581,0.2576,0,0.1144,0.1218,0.1332,0.1374,0.1496,0.159,0.1672,0.1841,0.1954,0.2147,0.2233,0.2446,0.2545,0.2686,0.2776,0.2673,0.3061,0.2921,0.3021,0.302,0.3184,0.3187,0.3406,0.3155,0.3154,0.3154,0.3153,0,0.126,0.1366,0.1379,0.146,0.1611,0.1658,0.1843,0.195,0.2104,0.2277,0.2353,0.2522,0.2652,0.2855,0.2911,0.3144,0.32,0.3141,0.3148,0.3179,0.3178,0.3188,0.3066,0.3165,0.3163,0.3161,0.3158,0,0.1417,0.1417,0.1551,0.1644,0.1669,0.1783,0.1906,0.2035,0.2153,0.2376,0.2439,0.2651,0.2928,0.3071,0.3317,0.3333,0.346,0.3562,0.3587,0.3591,0.3545,0.3418,0.3474,0.3411,0.3748,0.3751,0.3754,0,0.1519,0.1591,0.1669,0.1718,0.1767,0.1886,0.1972,0.2074,0.2207,0.2476,0.261,0.2887,0.3105,0.3488,0.3652,0.3866,0.3639,0.3971,0.3786,0.3662,0.3526,0.3207,0.3124,0.3998,0.4002,0.4005,0.4008,0,0.1731,0.1733,0.1817,0.1881,0.1955,0.2039,0.216,0.2245,0.2409,0.2561,0.2805,0.2969,0.339,0.3669,0.3939,0.4051,0.3822,0.4044,0.3956,0.3824,0.3464,0.3365,0.3626,0.404,0.4037,0.4035,0.4033,0.4032,0.1879,0.195,0.1996,0.2063,0.2115,0.2172,0.2228,0.2355,0.2506,0.2718,0.2906,0.3149,0.3583,0.3993,0.4109,0.4308,0.4038,0.4226,0.4114,0.3823,0.368,0.3999,0.4359,0.4358,0.4357,0.4356,0.4355,0,0.2047,0.2087,0.2165,0.2203,0.2227,0.2235,0.2342,0.2379,0.2506,0.2759,0.2934,0.3376,0.3734,0.4048,0.4362,0.4343,0.4173,0.429,0.3915,0.3852,0.4267,0.4198,0.4492,0.4492,0.4492,0.4492,0.4492,0.4492,0.2143,0.2231,0.2233,0.2272,0.2277,0.2286,0.231,0.2378,0.2525,0.2753,0.2981,0.3188,0.3569,0.4045,0.4229,0.4254,0.3927,0.3897,0.3711,0.4066,0.405,0.4034,0.3946,0.4182,0.4181,0.3272,0.3265,0.326]},{"header":{"parameterUnit":"m.s-1","parameterCategory":2,"la1":30.2991,"la2":30.254,"lo1":-89.0895,"lo2":-89.0444,"dy":0.0017,"dx":0.0017,"nx":28,"ny":28,"refTime":"2023-04-16T21:00:00:Z","depth":"0","parameterNumber":3,"parameterNumberName":"V-component_of_CURRENTS"},"data":[0,0,0,0,0,0,0,0,0,0,0,0,0,0,0,0,0,0,0,0,0,0,0,0,0,0,0,0,0,0,0,0,0,0,0,0,0,0,0,0,0,0,0,0,0,0,0,0,0,0,0,0,0,0,0,0,0,0,0.0895,0.0896,0,0.0946,0.0946,0.0947,0.0992,0.0992,0.0992,0.0993,0.0981,0.098,0.0979,0,0,0,0,0,0,0,0,0,0,0,0,0,0.0897,0.0896,0.0895,0.0896,0.0896,0.0945,0.0946,0.0947,0.0992,0.0992,0.0992,0.0993,0.0981,0.098,0.0979,0,0,0,0,0,0,0,0,0,0,0,0,0,0.0918,0.0896,0.0895,0.0923,0.0926,0.0945,0.0946,0.0947,0.0991,0.0992,0.0992,0.0993,0.0981,0.098,0.0979,0.0963,0,0,0.0976,0.0976,0,0,0,0,0,0,0,0,0.0917,0.0918,0.0918,0.0921,0.0924,0.0961,0.0942,0.0949,0.0991,0.0969,0.0993,0.0993,0.0966,0.0967,0.0979,0.0963,0.0962,0.0976,0.0976,0.0975,0.0975,0,0,0,0,0,0,0,0.0915,0.0917,0.0917,0.0919,0.0922,0.0953,0.0956,0.0945,0.0965,0.0971,0.0973,0.0976,0.0968,0.098,0.0979,0.0962,0.0976,0.0975,0.0975,0.0974,0.0965,0.0965,0,0,0,0,0,0,0.0901,0.0915,0.0916,0.0919,0.0919,0.0952,0.0956,0.095,0.0966,0.0969,0.0975,0.0977,0.0981,0.098,0.0978,0.1032,0.0975,0.0974,0.0974,0.0964,0.0965,0.0965,0,0,0,0,0,0,0.0901,0.09,0.0914,0.0917,0.092,0.0951,0.0945,0.0951,0.0974,0.097,0.0972,0.0993,0.0982,0.098,0.0998,0.1029,0.0974,0.0973,0.0964,0.0965,0.0965,0.1092,0,0,0,0,0,0,0.09,0.09,0.0889,0.0915,0.092,0.0939,0.0944,0.0952,0.0973,0.0977,0.0985,0.0984,0.0982,0.0999,0.0997,0.1026,0.0972,0.0964,0.0964,0.0965,0.1087,0.1097,0.1105,0,0,0,0,0,0.09,0.0882,0.0888,0.0888,0.0904,0.094,0.0946,0.097,0.0973,0.0991,0.1005,0.0984,0.1,0.1,0.0996,0.1026,0.0963,0.0964,0.0965,0.1084,0.1095,0.1105,0,0,0,0,0,0,0.0866,0.0886,0.0893,0.0878,0.0913,0.0947,0.0956,0.0973,0.0999,0.1005,0.0999,0.1,0.103,0.0997,0.0996,0.1019,0.0973,0.0973,0.1064,0.1075,0.1083,0.1116,0.0972,0,0,0,0,0,0.0854,0.0847,0.0884,0.0869,0.0892,0.0926,0.094,0.0968,0.0993,0.1006,0.1021,0.102,0.1026,0.1027,0.1029,0.1039,0.0995,0.1048,0.1057,0.1065,0.1086,0.1029,0.1035,0.0967,0.0967,0.0967,0,0,0.0826,0.0841,0.0831,0.0863,0.089,0.0955,0.0937,0.0973,0.1038,0.0996,0.1078,0.1059,0.1036,0.1069,0.1074,0.1048,0.1061,0.1066,0.1074,0.109,0.1031,0.1037,0.1043,0.0968,0.0968,0.0968,0,0,0.08,0.0798,0.0806,0.0862,0.0918,0.0957,0.0972,0.1032,0.107,0.1129,0.112,0.1121,0.1135,0.1135,0.1129,0.1174,0.1114,0.1162,0.1233,0.1178,0.1184,0.1188,0.1148,0.1148,0.1159,0.116,0.116,0,0.0768,0.0808,0.0813,0.0878,0.0942,0.0968,0.1046,0.1088,0.1151,0.1194,0.1171,0.1198,0.1172,0.1207,0.1228,0.1199,0.1159,0.1205,0.1192,0.1195,0.1198,0.1155,0.1154,0.1166,0.1165,0.1164,0.1164,0,0.0782,0.0844,0.0863,0.0962,0.1022,0.1092,0.1174,0.1238,0.1277,0.1319,0.1368,0.1328,0.134,0.1321,0.1295,0.1305,0.1269,0.1218,0.1175,0.1213,0.1165,0.1161,0.1175,0.1172,0.1171,0.1169,0,0,0.0664,0.0838,0.0855,0.0962,0.1095,0.1156,0.1271,0.1387,0.1471,0.1491,0.1569,0.1552,0.1515,0.1503,0.1447,0.1395,0.1372,0.1324,0.1318,0.1302,0.1263,0.1243,0.1236,0.1317,0.1317,0.1317,0.1226,0,0.0695,0.0841,0.0923,0.1103,0.1211,0.1317,0.1431,0.1536,0.1597,0.1677,0.163,0.166,0.1587,0.1572,0.1522,0.1421,0.1366,0.1403,0.1213,0.1208,0.12,0.1232,0.1251,0.1172,0.1222,0.1221,0.122,0,0.0711,0.0827,0.0992,0.1243,0.1297,0.1396,0.1601,0.1708,0.1814,0.1853,0.1864,0.1823,0.1785,0.1681,0.1542,0.157,0.1435,0.1333,0.1325,0.1264,0.1181,0.1137,0.1162,0.1,0.1213,0.1214,0.1214,0,0.0674,0.0897,0.1038,0.1125,0.1375,0.1472,0.1597,0.1748,0.1853,0.1937,0.1976,0.1942,0.1896,0.1752,0.1576,0.1547,0.1404,0.1323,0.1179,0.1176,0.1135,0.1129,0.0998,0.12,0.12,0.12,0.12,0,0.0716,0.0848,0.1034,0.1134,0.1321,0.1482,0.1667,0.1788,0.1926,0.2051,0.2037,0.2074,0.1903,0.181,0.1631,0.1428,0.1443,0.1212,0.1156,0.1179,0.1178,0.0988,0.0865,0.1197,0.1197,0.1198,0.1199,0,0.0707,0.0813,0.1008,0.1248,0.1317,0.1454,0.1706,0.1844,0.1958,0.2102,0.2118,0.215,0.2061,0.1895,0.1667,0.149,0.1177,0.1203,0.1261,0.1213,0.0913,0.0797,0.0567,0.046,0.1022,0.1022,0.1021,0,0.0738,0.0819,0.1057,0.1155,0.1273,0.1476,0.1629,0.1828,0.1974,0.2152,0.2219,0.2183,0.2212,0.1923,0.1608,0.1326,0.1148,0.113,0.1062,0.0921,0.0748,0.0659,0.0579,0.1053,0.1052,0.1052,0.1052,0,0.0819,0.0869,0.1027,0.1198,0.1357,0.1568,0.1788,0.1893,0.2136,0.2249,0.2386,0.2411,0.2177,0.1958,0.1602,0.1367,0.0999,0.1109,0.0938,0.0753,0.0669,0.0533,0.1096,0.1048,0.1048,0.1049,0.1049,0.1049,0.087,0.0973,0.1128,0.1297,0.1461,0.1671,0.1829,0.204,0.2257,0.248,0.2516,0.2639,0.2336,0.1859,0.15,0.0927,0.0886,0.0787,0.0656,0.0579,0.0481,0.1053,0.0955,0.0954,0.0954,0.0954,0.0954,0,0.0963,0.107,0.1229,0.1444,0.1606,0.1689,0.1959,0.2115,0.2341,0.2589,0.2733,0.2805,0.2332,0.184,0.1032,0.0569,0.0388,0.0394,0.0272,0.0207,0.0706,0.0716,0.0593,0.0593,0.0593,0.0593,0.0593,0.0594,0.1024,0.1175,0.1258,0.1527,0.1666,0.19,0.2042,0.2245,0.2465,0.2823,0.3059,0.3223,0.2918,0.143,0.0383,0.019,-0.0143,-0.0157,-0.033,0.0025,0.0053,0.0079,0.0064,-0.0194,-0.0196,-0.0752,-0.0758,-0.0762]}],[{"header":{"parameterUnit":"m.s-1","parameterCategory":2,"la1":30.2991,"la2":30.254,"lo1":-89.0895,"lo2":-89.0444,"dy":0.0017,"dx":0.0017,"nx":28,"ny":28,"refTime":"2023-04-16T21:00:00:Z","depth":"2","parameterNumber":2,"parameterNumberName":"U-component_of_CURRENTS"},"data":[0,0,0,0,0,0,0,0,0,0,0,0,0,0,0,0,0,0,0,0,0,0,0,0,0,0,0,0,0,0,0,0,0,0,0,0,0,0,0,0,0,0,0,0,0,0,0,0,0,0,0,0,0,0,0,0,0,0,0.0829,0.083,0,0.0904,0.0904,0.0905,0.1003,0.1005,0.1006,0.1008,0.0997,0.0995,0.0993,0,0,0,0,0,0,0,0,0,0,0,0,0,0.0843,0.0842,0.0829,0.083,0.0831,0.0904,0.0904,0.0905,0.1002,0.1005,0.1007,0.1009,0.0997,0.0995,0.0993,0,0,0,0,0,0,0,0,0,0,0,0,0,0.0867,0.0841,0.0828,0.0889,0.0896,0.0903,0.0905,0.0906,0.1002,0.1005,0.1007,0.101,0.0998,0.0995,0.0992,0.0922,0,0,0.0983,0.0982,0,0,0,0,0,0,0,0,0.0866,0.0866,0.0879,0.0885,0.0892,0.0948,0.0906,0.0907,0.1001,0.096,0.1008,0.1011,0.0971,0.0971,0.0978,0.0921,0.0921,0.0983,0.0981,0.098,0.0979,0,0,0,0,0,0,0,0.0864,0.0864,0.0857,0.088,0.0888,0.0939,0.0944,0.0907,0.0947,0.0964,0.0971,0.0982,0.0975,0.0981,0.0978,0.092,0.0983,0.0981,0.0979,0.0978,0.0941,0.0942,0,0,0,0,0,0,0.0851,0.0862,0.0854,0.0859,0.0887,0.0936,0.0942,0.0926,0.0949,0.0957,0.0979,0.0986,0.0984,0.0981,0.0978,0.0972,0.098,0.0977,0.0976,0.0941,0.0942,0.0942,0,0,0,0,0,0,0.085,0.0848,0.0851,0.0866,0.087,0.0932,0.0914,0.0926,0.0952,0.0963,0.0969,0.0996,0.0986,0.0982,0.0977,0.0969,0.0976,0.0973,0.094,0.0941,0.0942,0.091,0,0,0,0,0,0,0.085,0.0847,0.0841,0.0863,0.0869,0.0853,0.0912,0.0926,0.0954,0.0964,0.0977,0.0979,0.0988,0.0981,0.0974,0.0965,0.0971,0.0939,0.094,0.0942,0.091,0.091,0.091,0,0,0,0,0,0.085,0.0824,0.0839,0.084,0.0854,0.0852,0.0858,0.0913,0.0952,0.0948,0.0981,0.098,0.0987,0.0978,0.097,0.0961,0.0938,0.094,0.0941,0.091,0.091,0.091,0,0,0,0,0,0,0.0816,0.0832,0.085,0.0827,0.084,0.087,0.0878,0.0909,0.0931,0.0953,0.0969,0.097,0.0976,0.0969,0.096,0.0962,0.0968,0.0968,0.0947,0.0947,0.0947,0.0924,0.0969,0,0,0,0,0,0.0804,0.0794,0.0813,0.0792,0.0801,0.0839,0.0852,0.0884,0.0905,0.0921,0.0933,0.0954,0.0969,0.096,0.0971,0.0938,0.0956,0.0937,0.0937,0.0936,0.0916,0.0955,0.0956,0.0948,0.0948,0.0948,0,0,0.0786,0.0791,0.0787,0.0786,0.0806,0.0799,0.0853,0.0866,0.0863,0.0908,0.091,0.0949,0.0967,0.0965,0.0964,0.0956,0.0953,0.0939,0.0938,0.0918,0.0957,0.0958,0.0958,0.0949,0.0949,0.0949,0,0,0.0735,0.0746,0.0726,0.0734,0.076,0.0778,0.078,0.0812,0.0835,0.0833,0.0893,0.0926,0.0916,0.0944,0.0952,0.0946,0.0963,0.0959,0.0914,0.0952,0.0953,0.0953,0.0989,0.0993,0.0943,0.0943,0.0943,0,0.0718,0.0692,0.0718,0.0704,0.0717,0.0763,0.0752,0.0761,0.0789,0.0808,0.083,0.089,0.0904,0.0921,0.0933,0.0941,0.097,0.0908,0.095,0.0951,0.0951,0.0988,0.0993,0.0942,0.0942,0.0942,0.0942,0,0.0659,0.0647,0.0635,0.0634,0.0642,0.064,0.0664,0.0678,0.0716,0.0741,0.0781,0.0819,0.0863,0.0876,0.0892,0.0915,0.0938,0.0957,0.0943,0.095,0.0989,0.0995,0.094,0.094,0.0941,0.0941,0,0,0.061,0.0598,0.06,0.0601,0.0618,0.062,0.0612,0.0632,0.0661,0.0679,0.0717,0.0742,0.08,0.0815,0.086,0.0872,0.0912,0.0906,0.0909,0.0929,0.1001,0.1197,0.1221,0.0943,0.0944,0.0944,0.103,0,0.0567,0.0529,0.054,0.0518,0.051,0.0555,0.0552,0.0579,0.062,0.0663,0.0705,0.0763,0.0764,0.0821,0.0826,0.0916,0.0922,0.0886,0.1002,0.1005,0.1168,0.1233,0.0962,0.1032,0.1035,0.1036,0.1036,0,0.0525,0.0507,0.0475,0.0489,0.0496,0.0496,0.055,0.0551,0.061,0.0654,0.0701,0.0759,0.0802,0.0813,0.0893,0.0876,0.0921,0.0962,0.0968,0.116,0.1212,0.1026,0.1042,0.1045,0.1045,0.1044,0.1043,0,0.0496,0.0477,0.0456,0.0456,0.0464,0.0484,0.0508,0.0562,0.0602,0.067,0.0743,0.0775,0.0862,0.0881,0.099,0.0943,0.1097,0.1051,0.1249,0.1263,0.1059,0.1057,0.1082,0.1082,0.1082,0.1082,0.1081,0,0.0453,0.0442,0.0452,0.0436,0.0459,0.0474,0.0526,0.0559,0.0639,0.0727,0.0753,0.0868,0.089,0.0995,0.1014,0.1198,0.1126,0.126,0.1311,0.1049,0.1046,0.107,0.1068,0.1085,0.1084,0.1084,0.1083,0,0.0416,0.0412,0.0397,0.0414,0.0439,0.0458,0.0554,0.0606,0.0676,0.0801,0.0839,0.0963,0.1147,0.1192,0.1293,0.1307,0.1409,0.1479,0.1193,0.1214,0.1516,0.151,0.1669,0.1677,0.1684,0.169,0.1694,0,0.0393,0.037,0.0392,0.0425,0.0442,0.0494,0.0557,0.0623,0.0706,0.0896,0.098,0.1186,0.1394,0.1624,0.1672,0.177,0.1681,0.1546,0.1421,0.1549,0.1581,0.1565,0.1551,0.1101,0.1101,0.11,0.11,0,0.0348,0.0356,0.0355,0.0426,0.0491,0.056,0.0663,0.0738,0.0859,0.0998,0.1251,0.1432,0.1698,0.1748,0.1894,0.1862,0.1508,0.1558,0.1733,0.1069,0.1042,0.1066,0.1063,0.1096,0.1096,0.1097,0.1097,0.1097,0.0339,0.035,0.0378,0.0456,0.0531,0.0654,0.0739,0.0881,0.1047,0.1273,0.1438,0.1618,0.16,0.1801,0.1801,0.1713,0.1816,0.1533,0.1519,0.1509,0.1503,0.1498,0.1632,0.1635,0.1638,0.1641,0.1643,0,0.0342,0.0382,0.0433,0.0529,0.063,0.0676,0.0838,0.0931,0.1163,0.1319,0.1568,0.1453,0.1546,0.1522,0.1452,0.1514,0.1326,0.1352,0.0999,0.1005,0.1009,0.0964,0.0957,0.0956,0.0955,0.0955,0,0,0.0349,0.0403,0.0441,0.0613,0.0707,0.0863,0.0971,0.1104,0.1195,0.1313,0.1336,0.154,0.1484,0.1232,0.1184,0.1073,0.1018,0.0999,0.1526,0.1113,0.1117,0.1078,0.1016,0,0,0,0,0]},{"header":{"parameterUnit":"m.s-1","parameterCategory":2,"la1":30.2991,"la2":30.254,"lo1":-89.0895,"lo2":-89.0444,"dy":0.0017,"dx":0.0017,"nx":28,"ny":28,"refTime":"2023-04-16T21:00:00:Z","depth":"2","parameterNumber":3,"parameterNumberName":"V-component_of_CURRENTS"},"data":[0,0,0,0,0,0,0,0,0,0,0,0,0,0,0,0,0,0,0,0,0,0,0,0,0,0,0,0,0,0,0,0,0,0,0,0,0,0,0,0,0,0,0,0,0,0,0,0,0,0,0,0,0,0,0,0,0,0,-0.0604,-0.0604,0,-0.0605,-0.0606,-0.0606,-0.0572,-0.0571,-0.057,-0.0569,-0.066,-0.0664,-0.0667,0,0,0,0,0,0,0,0,0,0,0,0,0,-0.0559,-0.056,-0.0604,-0.0604,-0.0604,-0.0605,-0.0606,-0.0606,-0.0572,-0.0571,-0.0569,-0.0568,-0.0659,-0.0663,-0.0667,0,0,0,0,0,0,0,0,0,0,0,0,0,-0.0573,-0.056,-0.0604,-0.0585,-0.0584,-0.0605,-0.0606,-0.0606,-0.0572,-0.0571,-0.0569,-0.0567,-0.0658,-0.0663,-0.0668,-0.0734,0,0,-0.0684,-0.0686,0,0,0,0,0,0,0,0,-0.0573,-0.0576,-0.0588,-0.0587,-0.0585,-0.0585,-0.0623,-0.0653,-0.0573,-0.0579,-0.0568,-0.0567,-0.0643,-0.0649,-0.0655,-0.0739,-0.0742,-0.0684,-0.0688,-0.069,-0.0691,0,0,0,0,0,0,0,-0.0572,-0.0575,-0.0607,-0.0588,-0.0586,-0.0572,-0.0572,-0.0628,-0.0624,-0.0579,-0.0575,-0.0572,-0.0643,-0.065,-0.0658,-0.0744,-0.0684,-0.0689,-0.0692,-0.0694,-0.0775,-0.0774,0,0,0,0,0,0,-0.057,-0.0575,-0.0607,-0.0607,-0.0572,-0.0574,-0.0575,-0.0588,-0.0622,-0.0623,-0.0574,-0.0571,-0.0642,-0.0652,-0.0661,-0.0683,-0.069,-0.0695,-0.0698,-0.0776,-0.0775,-0.0773,0,0,0,0,0,0,-0.0569,-0.0573,-0.0607,-0.0587,-0.059,-0.0576,-0.0592,-0.0589,-0.0539,-0.0616,-0.062,-0.0519,-0.0641,-0.0653,-0.0677,-0.0689,-0.0697,-0.0702,-0.0777,-0.0775,-0.0774,-0.0766,0,0,0,0,0,0,-0.0568,-0.0574,-0.0575,-0.0588,-0.0591,-0.0608,-0.0593,-0.059,-0.0543,-0.0537,-0.0573,-0.0583,-0.0641,-0.0669,-0.0682,-0.0696,-0.0706,-0.0778,-0.0776,-0.0774,-0.0767,-0.0764,-0.0761,0,0,0,0,0,-0.0567,-0.0605,-0.0576,-0.0578,-0.0597,-0.0608,-0.0609,-0.0594,-0.0541,-0.0537,-0.0546,-0.0578,-0.0666,-0.0673,-0.0689,-0.0704,-0.0779,-0.0777,-0.0775,-0.0769,-0.0765,-0.0762,0,0,0,0,0,0,-0.0588,-0.0604,-0.0573,-0.061,-0.0591,-0.0601,-0.0603,-0.0557,-0.0556,-0.0541,-0.0579,-0.0593,-0.0614,-0.0648,-0.0653,-0.0714,-0.0723,-0.0723,-0.0712,-0.071,-0.0707,-0.0739,-0.071,0,0,0,0,0,-0.0589,-0.0602,-0.0606,-0.0612,-0.0616,-0.0582,-0.0573,-0.0552,-0.0555,-0.0546,-0.0553,-0.0577,-0.0627,-0.0653,-0.0694,-0.0739,-0.0769,-0.075,-0.0747,-0.0745,-0.0777,-0.0814,-0.0819,-0.0766,-0.0766,-0.0766,0,0,-0.0585,-0.0597,-0.0596,-0.0613,-0.06,-0.0625,-0.0574,-0.0557,-0.0561,-0.0565,-0.0558,-0.0562,-0.0629,-0.0679,-0.0691,-0.0707,-0.0767,-0.0742,-0.074,-0.0775,-0.0812,-0.0818,-0.0823,-0.0764,-0.0765,-0.0765,0,0,-0.0615,-0.0604,-0.0636,-0.0634,-0.0618,-0.0617,-0.0592,-0.0567,-0.0545,-0.0547,-0.0544,-0.0548,-0.0604,-0.066,-0.0703,-0.0705,-0.0739,-0.069,-0.0728,-0.0762,-0.0768,-0.0774,-0.0792,-0.0799,-0.0704,-0.0704,-0.0704,0,-0.0607,-0.0649,-0.0639,-0.0675,-0.0666,-0.0607,-0.0625,-0.0626,-0.0591,-0.0579,-0.0547,-0.0581,-0.0618,-0.0703,-0.0706,-0.0707,-0.0717,-0.0743,-0.0763,-0.0769,-0.0775,-0.0792,-0.0801,-0.0703,-0.0703,-0.0703,-0.0703,0,-0.0672,-0.0689,-0.0708,-0.0733,-0.0726,-0.0726,-0.0723,-0.0691,-0.0634,-0.0624,-0.0622,-0.0651,-0.0674,-0.0676,-0.0713,-0.0763,-0.075,-0.0744,-0.0781,-0.0781,-0.0797,-0.0806,-0.0702,-0.0702,-0.0703,-0.0703,0,0,-0.0709,-0.0745,-0.0749,-0.0735,-0.0745,-0.0734,-0.076,-0.0761,-0.0734,-0.0718,-0.0695,-0.0774,-0.0727,-0.077,-0.0771,-0.0813,-0.0852,-0.08,-0.0802,-0.0834,-0.0911,-0.0787,-0.0784,-0.0841,-0.0843,-0.0845,-0.0896,0,-0.075,-0.0804,-0.082,-0.0827,-0.0841,-0.0805,-0.0817,-0.0802,-0.0773,-0.0741,-0.0771,-0.076,-0.0786,-0.0757,-0.0814,-0.0826,-0.0879,-0.0838,-0.0893,-0.0896,-0.0799,-0.0792,-0.0781,-0.0816,-0.0905,-0.0907,-0.0908,0,-0.0839,-0.0839,-0.087,-0.0829,-0.083,-0.0828,-0.0779,-0.0782,-0.078,-0.0749,-0.0764,-0.0753,-0.0817,-0.0804,-0.0908,-0.0872,-0.0909,-0.093,-0.0931,-0.0837,-0.0789,-0.0834,-0.0829,-0.0924,-0.0922,-0.0921,-0.092,0,-0.0863,-0.0879,-0.088,-0.0875,-0.0846,-0.0823,-0.0791,-0.0774,-0.0733,-0.0739,-0.0687,-0.0772,-0.0749,-0.0848,-0.0889,-0.09,-0.0968,-0.0986,-0.0926,-0.0917,-0.0934,-0.0921,-0.1081,-0.1081,-0.1081,-0.1081,-0.108,0,-0.0925,-0.0923,-0.0874,-0.0871,-0.0802,-0.0796,-0.0726,-0.0713,-0.0669,-0.0595,-0.0672,-0.0604,-0.0753,-0.0789,-0.0881,-0.0908,-0.0971,-0.0943,-0.0927,-0.0921,-0.0907,-0.1028,-0.1021,-0.1082,-0.1082,-0.1082,-0.1081,0,-0.097,-0.0968,-0.0937,-0.0865,-0.0822,-0.0766,-0.0641,-0.058,-0.057,-0.047,-0.0461,-0.0483,-0.0514,-0.0651,-0.0769,-0.0842,-0.0915,-0.0913,-0.0877,-0.0854,-0.0857,-0.0849,-0.0885,-0.0881,-0.0878,-0.0875,-0.0873,0,-0.1008,-0.1005,-0.0894,-0.0817,-0.0771,-0.0669,-0.0574,-0.0527,-0.0439,-0.0356,-0.0282,-0.0298,-0.022,-0.0359,-0.0522,-0.067,-0.0775,-0.0775,-0.0807,-0.0859,-0.084,-0.0837,-0.0834,-0.0833,-0.0831,-0.0829,-0.0827,0,-0.102,-0.098,-0.0912,-0.075,-0.0634,-0.0499,-0.0359,-0.0265,-0.0186,-0.0083,0.0076,0.0139,0.0026,-0.0098,-0.0316,-0.0426,-0.0757,-0.0731,-0.0825,-0.0845,-0.0803,-0.0785,-0.0786,-0.0809,-0.0811,-0.0812,-0.0813,-0.0814,-0.0989,-0.0914,-0.0796,-0.0633,-0.0498,-0.0303,-0.0143,0.0022,0.0212,0.0449,0.0431,0.0505,0.021,-0.0004,-0.0206,-0.0481,-0.0492,-0.0661,-0.0672,-0.0684,-0.0629,-0.0579,-0.0535,-0.0535,-0.0535,-0.0535,-0.0535,0,-0.0902,-0.0803,-0.0661,-0.0448,-0.026,-0.022,0.0035,0.0233,0.0535,0.0665,0.0871,0.0604,0.0452,0.0078,-0.0273,-0.0442,-0.0508,-0.0548,-0.0654,-0.0668,-0.0681,-0.0632,-0.0536,-0.0537,-0.0537,-0.0537,0,0,-0.0844,-0.0678,-0.0585,-0.0254,-0.0101,0.019,0.0362,0.0645,0.0785,0.0991,0.0965,0.1012,0.0457,0.0179,-0.0105,-0.0332,-0.0436,-0.0351,-0.033,-0.0431,-0.0441,-0.0726,-0.066,0,0,0,0,0]}],[{"header":{"parameterUnit":"m.s-1","parameterCategory":2,"la1":30.2991,"la2":30.254,"lo1":-89.0895,"lo2":-89.0444,"dy":0.0017,"dx":0.0017,"nx":28,"ny":28,"refTime":"2023-04-16T21:00:00:Z","depth":"4","parameterNumber":2,"parameterNumberName":"U-component_of_CURRENTS"},"data":[0,0,0,0,0,0,0,0,0,0,0,0,0,0,0,0,0,0,0,0,0,0,0,0,0,0,0,0,0,0,0,0,0,0,0,0,0,0,0,0,0,0,0,0,0,0,0,0,0,0,0,0,0,0,0,0,0,0,0.0593,0.0593,0,0.0626,0.0627,0.0628,0.0679,0.0679,0.0679,0.068,0.0623,0.0622,0.062,0,0,0,0,0,0,0,0,0,0,0,0,0,0.0564,0.0565,0.0593,0.0593,0.0593,0.0626,0.0627,0.0629,0.0679,0.0679,0.0679,0.068,0.0624,0.0622,0.062,0,0,0,0,0,0,0,0,0,0,0,0,0,0.0593,0.0565,0.0593,0.0615,0.0617,0.0626,0.0627,0.0629,0.0679,0.0679,0.068,0.068,0.0625,0.0622,0.062,0.0603,0,0,0.0613,0.0612,0,0,0,0,0,0,0,0,0.0591,0.0595,0.0612,0.0614,0.0615,0.0641,0.0596,0.0613,0.0679,0.0665,0.068,0.068,0.0615,0.0614,0.0633,0.06,0.0598,0.0613,0.0611,0.061,0.0609,0,0,0,0,0,0,0,0.0589,0.0594,0.0616,0.0612,0.0614,0.0619,0.0625,0.06,0.0644,0.0666,0.0668,0.0657,0.0617,0.0636,0.0632,0.0597,0.0613,0.061,0.0609,0.0608,0.0504,0.0503,0,0,0,0,0,0,0.0568,0.0592,0.0614,0.0616,0.0593,0.0619,0.0625,0.064,0.0646,0.0646,0.0657,0.0659,0.064,0.0635,0.063,0.0586,0.061,0.0608,0.0607,0.0505,0.0504,0.0502,0,0,0,0,0,0,0.0568,0.0571,0.0613,0.0596,0.06,0.0618,0.0635,0.064,0.0672,0.0639,0.0638,0.0682,0.064,0.0633,0.0596,0.0585,0.0607,0.0605,0.0507,0.0505,0.0503,0.0512,0,0,0,0,0,0,0.0567,0.0571,0.058,0.0595,0.06,0.0621,0.0634,0.0641,0.0659,0.0664,0.0659,0.0654,0.0639,0.06,0.0594,0.0582,0.0603,0.0509,0.0506,0.0504,0.0513,0.051,0.0508,0,0,0,0,0,0.0567,0.0562,0.0581,0.0583,0.0612,0.062,0.0625,0.0643,0.066,0.0674,0.0655,0.0655,0.058,0.0597,0.059,0.0577,0.051,0.0507,0.0504,0.0514,0.0511,0.0508,0,0,0,0,0,0,0.0552,0.0566,0.0588,0.059,0.0609,0.0626,0.0638,0.0651,0.0655,0.0658,0.064,0.0632,0.0588,0.058,0.0599,0.0536,0.0544,0.054,0.0554,0.0551,0.0548,0.0596,0.0601,0,0,0,0,0,0.0553,0.0563,0.0578,0.0587,0.0601,0.0629,0.0637,0.0648,0.0646,0.0653,0.063,0.0604,0.057,0.056,0.0523,0.0499,0.0535,0.0483,0.048,0.0478,0.051,0.0534,0.0538,0.0492,0.0492,0.0492,0,0,0.0549,0.0558,0.0564,0.0585,0.0614,0.0637,0.0639,0.0654,0.0668,0.0639,0.0637,0.0587,0.0557,0.0518,0.05,0.0514,0.051,0.0474,0.0473,0.0507,0.0531,0.0536,0.0541,0.049,0.0491,0.0491,0,0,0.0547,0.0566,0.0582,0.0602,0.0627,0.064,0.0647,0.0658,0.0666,0.0641,0.0617,0.0572,0.052,0.0503,0.0488,0.0452,0.0484,0.0424,0.0466,0.0486,0.0492,0.0497,0.0563,0.0574,0.0436,0.0436,0.0436,0,0.0544,0.0577,0.0586,0.0614,0.0634,0.0647,0.0678,0.0685,0.067,0.0673,0.0635,0.0567,0.0522,0.0513,0.0483,0.0451,0.0483,0.0483,0.0488,0.0493,0.0499,0.0565,0.0577,0.0436,0.0436,0.0436,0.0436,0,0.0563,0.0597,0.0611,0.0661,0.0677,0.0702,0.0712,0.0715,0.0703,0.0697,0.066,0.0591,0.0559,0.0519,0.0485,0.0491,0.0509,0.0474,0.0508,0.0505,0.0573,0.0586,0.0436,0.0436,0.0436,0.0436,0,0,0.0535,0.0613,0.0621,0.0665,0.0708,0.0723,0.0748,0.0774,0.0796,0.0744,0.0759,0.0667,0.0628,0.0608,0.0554,0.0564,0.0601,0.0534,0.0535,0.0624,0.0688,0.0612,0.0619,0.0565,0.0566,0.0568,0.0728,0,0.0561,0.0624,0.0652,0.0718,0.0759,0.0786,0.0809,0.0825,0.0815,0.0816,0.077,0.0736,0.0666,0.0628,0.0628,0.0594,0.0632,0.0564,0.0659,0.0664,0.0615,0.0629,0.0573,0.0738,0.0741,0.0743,0.0745,0,0.0571,0.0616,0.0691,0.0767,0.0789,0.0821,0.0875,0.0889,0.0904,0.0887,0.0869,0.0826,0.0814,0.0739,0.0761,0.072,0.0715,0.0706,0.0711,0.0653,0.0609,0.0735,0.0768,0.0766,0.0764,0.0763,0.0761,0,0.0546,0.0638,0.0705,0.0734,0.0816,0.0852,0.088,0.091,0.0931,0.0932,0.0942,0.0923,0.0909,0.0899,0.0855,0.0811,0.0901,0.084,0.0799,0.0796,0.0818,0.0811,0.0893,0.0893,0.0893,0.0892,0.0892,0,0.0541,0.0595,0.0706,0.0738,0.0808,0.0853,0.0907,0.0925,0.0964,0.0995,0.097,0.0968,0.0943,0.097,0.0926,0.0911,0.0967,0.0834,0.0828,0.0817,0.0807,0.0829,0.082,0.0898,0.0897,0.0896,0.0895,0,0.0488,0.0573,0.0654,0.0763,0.0801,0.0836,0.0923,0.0949,0.0993,0.1036,0.1039,0.104,0.103,0.1044,0.1041,0.1004,0.099,0.098,0.1029,0.1018,0.0867,0.0856,0.0958,0.0956,0.0955,0.0954,0.0953,0,0.0461,0.0504,0.0653,0.0703,0.0758,0.0826,0.0869,0.0937,0.0961,0.1052,0.1058,0.1091,0.1074,0.1047,0.1029,0.1026,0.0985,0.1041,0.0893,0.0888,0.0872,0.0863,0.0853,0.0951,0.0951,0.095,0.095,0,0.0398,0.0473,0.0535,0.0648,0.0723,0.079,0.0852,0.0864,0.0945,0.1043,0.1034,0.1025,0.1032,0.0974,0.1009,0.0978,0.1026,0.1027,0.1027,0.0888,0.0881,0.0865,0.0857,0.0946,0.0946,0.0947,0.0947,0,0.0346,0.0374,0.048,0.0566,0.0664,0.0703,0.0747,0.0785,0.0829,0.0947,0.0938,0.0958,0.1011,0.0952,0.0957,0.0947,0.0895,0.088,0.0886,0.0892,0.0783,0.0758,0.0804,0,0,0,0,0,0.0284,0.0312,0.0385,0.0471,0.0565,0.0636,0.072,0.0761,0.0867,0.0847,0.0894,0.0879,0.0866,0.0848,0.081,0.089,0.0887,0.0847,0.087,0.0922,0.0927,0.0797,0,0,0,0,0,0,0.0247,0.0305,0.0348,0.0382,0.0429,0.0516,0.0572,0.0646,0.0622,0.0737,0.0695,0.0847,0.0793,0.0865,0.0792,0.0802,0.0806,0.089,0.0889,0.0919,0.0924,0.0928,0.0796,0,0,0,0,0]},{"header":{"parameterUnit":"m.s-1","parameterCategory":2,"la1":30.2991,"la2":30.254,"lo1":-89.0895,"lo2":-89.0444,"dy":0.0017,"dx":0.0017,"nx":28,"ny":28,"refTime":"2023-04-16T21:00:00:Z","depth":"4","parameterNumber":3,"parameterNumberName":"V-component_of_CURRENTS"},"data":[0,0,0,0,0,0,0,0,0,0,0,0,0,0,0,0,0,0,0,0,0,0,0,0,0,0,0,0,0,0,0,0,0,0,0,0,0,0,0,0,0,0,0,0,0,0,0,0,0,0,0,0,0,0,0,0,0,0,-0.0381,-0.0382,0,-0.0531,-0.0534,-0.0536,-0.0706,-0.0708,-0.0709,-0.0711,-0.0868,-0.0871,-0.0874,0,0,0,0,0,0,0,0,0,0,0,0,0,-0.0276,-0.0278,-0.0381,-0.0382,-0.0383,-0.0531,-0.0534,-0.0537,-0.0706,-0.0708,-0.071,-0.0711,-0.0867,-0.0871,-0.0874,0,0,0,0,0,0,0,0,0,0,0,0,0,-0.0374,-0.0279,-0.0381,-0.0477,-0.0486,-0.053,-0.0534,-0.0538,-0.0706,-0.0708,-0.071,-0.0712,-0.0866,-0.087,-0.0874,-0.0856,0,0,-0.0887,-0.0889,0,0,0,0,0,0,0,0,-0.0368,-0.0379,-0.0462,-0.047,-0.048,-0.0592,-0.0554,-0.0641,-0.0705,-0.0634,-0.0711,-0.0713,-0.0767,-0.078,-0.0819,-0.0863,-0.087,-0.0888,-0.089,-0.0892,-0.0893,0,0,0,0,0,0,0,-0.0361,-0.0374,-0.0452,-0.0462,-0.0473,-0.0523,-0.0541,-0.0572,-0.0695,-0.0641,-0.065,-0.0648,-0.0775,-0.0815,-0.0824,-0.0872,-0.0887,-0.0891,-0.0894,-0.0895,-0.1029,-0.103,0,0,0,0,0,0,-0.0316,-0.0367,-0.0447,-0.0455,-0.0416,-0.0522,-0.0542,-0.0563,-0.0695,-0.0714,-0.0646,-0.0655,-0.0807,-0.0819,-0.083,-0.0897,-0.0892,-0.0896,-0.0898,-0.1028,-0.1029,-0.1031,0,0,0,0,0,0,-0.0313,-0.0322,-0.0441,-0.0404,-0.0422,-0.052,-0.0544,-0.0565,-0.0682,-0.0697,-0.072,-0.0748,-0.0809,-0.0824,-0.0918,-0.0901,-0.0898,-0.0902,-0.1027,-0.1029,-0.103,-0.0979,0,0,0,0,0,0,-0.031,-0.0321,-0.0344,-0.0402,-0.0421,-0.0481,-0.0541,-0.0566,-0.0666,-0.0683,-0.0789,-0.0803,-0.0812,-0.0912,-0.0922,-0.0907,-0.0905,-0.1026,-0.1028,-0.103,-0.0979,-0.0978,-0.0978,0,0,0,0,0,-0.0306,-0.0313,-0.0345,-0.0355,-0.0443,-0.0479,-0.0497,-0.0581,-0.0669,-0.0703,-0.08,-0.0803,-0.093,-0.0917,-0.0929,-0.0914,-0.1025,-0.1027,-0.1029,-0.098,-0.0979,-0.0978,0,0,0,0,0,0,-0.0294,-0.0332,-0.0368,-0.0393,-0.0438,-0.0504,-0.0552,-0.0622,-0.0733,-0.0791,-0.0833,-0.0851,-0.0921,-0.0941,-0.0925,-0.0962,-0.0971,-0.0975,-0.0929,-0.0928,-0.0927,-0.0879,-0.0908,0,0,0,0,0,-0.0292,-0.0312,-0.0353,-0.0382,-0.0413,-0.0506,-0.0549,-0.0615,-0.0699,-0.0758,-0.0831,-0.0902,-0.0925,-0.0953,-0.0992,-0.1022,-0.1008,-0.1018,-0.1017,-0.1016,-0.0987,-0.0971,-0.0965,-0.1038,-0.1038,-0.1038,0,0,-0.0297,-0.0318,-0.0335,-0.038,-0.0446,-0.0453,-0.0545,-0.0633,-0.0648,-0.0751,-0.0847,-0.092,-0.0942,-0.097,-0.0999,-0.0992,-0.0992,-0.1019,-0.1017,-0.0989,-0.0973,-0.0965,-0.0958,-0.104,-0.1039,-0.1039,0,0,-0.0276,-0.0346,-0.0343,-0.0374,-0.0448,-0.0483,-0.052,-0.0632,-0.0702,-0.0784,-0.0851,-0.0925,-0.0996,-0.0986,-0.0985,-0.1008,-0.1,-0.1036,-0.0975,-0.096,-0.0952,-0.0945,-0.0919,-0.091,-0.1019,-0.1019,-0.1019,0,-0.0282,-0.0282,-0.035,-0.0348,-0.0369,-0.0494,-0.0498,-0.0555,-0.0686,-0.0729,-0.0809,-0.093,-0.0974,-0.0946,-0.0956,-0.0996,-0.0996,-0.0969,-0.0953,-0.0946,-0.094,-0.0915,-0.0906,-0.1017,-0.1017,-0.1017,-0.1017,0,-0.0239,-0.0253,-0.0269,-0.0286,-0.0315,-0.0361,-0.0416,-0.0493,-0.0611,-0.0664,-0.0754,-0.0839,-0.0895,-0.0917,-0.0942,-0.0914,-0.0932,-0.0963,-0.0942,-0.0928,-0.0905,-0.0896,-0.1014,-0.1014,-0.1015,-0.1016,0,0,-0.0215,-0.023,-0.0238,-0.0244,-0.0306,-0.0329,-0.0347,-0.0386,-0.0427,-0.0557,-0.0595,-0.066,-0.0767,-0.0774,-0.0834,-0.0822,-0.0791,-0.0875,-0.0875,-0.0823,-0.0756,-0.0738,-0.0727,-0.0829,-0.0827,-0.0826,-0.0757,0,-0.0173,-0.0137,-0.0154,-0.0146,-0.0151,-0.0235,-0.0229,-0.029,-0.0379,-0.0447,-0.0535,-0.0609,-0.0684,-0.0753,-0.0746,-0.0801,-0.0767,-0.0806,-0.0799,-0.0797,-0.0761,-0.0715,-0.0821,-0.075,-0.0748,-0.0746,-0.0745,0,-0.0121,-0.0105,-0.0082,-0.0093,-0.0109,-0.0121,-0.018,-0.0195,-0.0269,-0.0349,-0.0426,-0.0521,-0.0546,-0.0632,-0.0643,-0.0677,-0.0699,-0.0725,-0.0723,-0.0709,-0.0762,-0.077,-0.0729,-0.0731,-0.0732,-0.0733,-0.0734,0,-0.0077,-0.0059,-0.0045,-0.0053,-0.0072,-0.0104,-0.0137,-0.0199,-0.0216,-0.0312,-0.0349,-0.0415,-0.0474,-0.0505,-0.0571,-0.062,-0.0568,-0.064,-0.062,-0.0619,-0.0678,-0.0687,-0.06,-0.06,-0.06,-0.0601,-0.0601,0,-0.0025,-0.0019,-0.0044,-0.0046,-0.0058,-0.0097,-0.0128,-0.0173,-0.0215,-0.0201,-0.0323,-0.0319,-0.0451,-0.0453,-0.0512,-0.0521,-0.0513,-0.0577,-0.0589,-0.0663,-0.0671,-0.0672,-0.0681,-0.0598,-0.0599,-0.0599,-0.06,0,0.0002,-0.0001,0.0008,-0.0023,-0.0045,-0.0078,-0.012,-0.0117,-0.0177,-0.0158,-0.0183,-0.0243,-0.0268,-0.0343,-0.0386,-0.0438,-0.0456,-0.0447,-0.0482,-0.0504,-0.0536,-0.0544,-0.044,-0.0438,-0.0437,-0.0436,-0.0435,0,0.0017,0.0024,0.0006,0.0006,-0.003,-0.0072,-0.0076,-0.0122,-0.0085,-0.0081,-0.0036,-0.0084,-0.0124,-0.0153,-0.0259,-0.0337,-0.0362,-0.0371,-0.049,-0.0491,-0.0514,-0.0524,-0.0533,-0.0433,-0.0433,-0.0432,-0.0432,0,0.004,0.002,0.0035,0.0042,0.0022,0.0035,0.0029,0.0057,0.0061,0.0036,0.0087,0.0017,0.0002,-0.0108,-0.0163,-0.0223,-0.0382,-0.036,-0.0365,-0.0477,-0.0482,-0.0508,-0.0519,-0.0428,-0.0428,-0.0429,-0.0429,0,0.0044,0.0059,0.0084,0.0075,0.0096,0.0134,0.0113,0.0164,0.018,0.0191,0.0226,0.0145,0.0088,-0.0039,-0.007,-0.0153,-0.0218,-0.0276,-0.0287,-0.0294,-0.0299,-0.0288,-0.0148,0,0,0,0,0,0.0055,0.0089,0.0119,0.0136,0.0171,0.0167,0.0214,0.0212,0.0226,0.028,0.0246,0.0232,0.0106,0.0048,-0.003,-0.0074,-0.0236,-0.0171,-0.0309,-0.0403,-0.0408,-0.0442,0,0,0,0,0,0,0.0079,0.012,0.0139,0.0196,0.0208,0.0253,0.0272,0.0277,0.031,0.0302,0.0244,0.0196,0.0082,0.0147,-0.0039,-0.0066,-0.0167,-0.0234,-0.0236,-0.0401,-0.0405,-0.0409,-0.0445,0,0,0,0,0]}]]